Time,TemperatureF,DewpointF,PressureIn,WindDirection,WindDirectionDegrees,WindSpeedMPH,WindSpeedGustMPH,Humidity,HourlyPrecipIn,Conditions,Clouds,dailyrainin,SolarRadiationWatts/m^2,SoftwareType,DateUTC
2013-07-26 00:32:00,53.0,48.0,-100.00,NE,37,1.0,3.0,82,0.00,,,0.00,0.000000,,2013-07-26 07:32:00,
2013-07-26 00:43:00,53.0,48.0,-100.00,NE,37,1.0,3.0,82,0.00,,,0.00,0.000000,,2013-07-26 07:43:00,
2013-07-26 00:52:00,51.0,46.0,-100.00,NE,36,0.0,2.0,84,0.00,,,0.00,0.000000,,2013-07-26 07:52:00,
2013-07-26 01:32:00,51.0,46.0,-100.00,NE,36,0.0,2.0,84,0.00,,,0.00,0.000000,,2013-07-26 08:32:00,
2013-07-26 01:44:00,51.0,46.0,-100.00,NE,36,0.0,2.0,84,0.00,,,0.00,0.000000,,2013-07-26 08:44:00,
2013-07-26 01:52:00,49.0,45.0,-100.00,NNE,32,0.0,2.0,86,0.00,,,0.00,0.000000,,2013-07-26 08:52:00,
2013-07-26 02:12:00,49.0,45.0,-100.00,NNE,32,0.0,2.0,86,0.00,,,0.00,0.000000,,2013-07-26 09:12:00,
2013-07-26 02:22:00,49.0,45.0,-100.00,NNE,32,0.0,2.0,86,0.00,,,0.00,0.000000,,2013-07-26 09:22:00,
2013-07-26 02:32:00,49.0,45.0,-100.00,NNE,32,0.0,2.0,86,0.00,,,0.00,0.000000,,2013-07-26 09:32:00,
2013-07-26 02:43:00,49.0,45.0,-100.00,NNE,32,0.0,2.0,86,0.00,,,0.00,0.000000,,2013-07-26 09:43:00,
2013-07-26 03:32:00,46.0,43.0,-100.00,NNE,31,0.0,3.0,88,-99.99,,,-99.99,0.000000,,2013-07-26 10:32:00,
2013-07-26 03:42:00,46.0,43.0,-100.00,NNE,31,0.0,3.0,88,-99.99,,,-99.99,0.000000,,2013-07-26 10:42:00,
2013-07-26 03:52:00,45.0,42.0,-100.00,NNE,28,0.0,2.0,89,0.00,,,0.00,0.000000,,2013-07-26 10:52:00,
2013-07-26 04:32:00,45.0,42.0,-100.00,NNE,28,0.0,2.0,89,0.00,,,0.00,0.000000,,2013-07-26 11:32:00,
2013-07-26 04:43:00,45.0,42.0,-100.00,NNE,28,0.0,2.0,89,0.00,,,0.00,0.000000,,2013-07-26 11:43:00,
2013-07-26 04:52:00,43.0,41.0,-100.00,NNE,30,0.0,2.0,91,0.00,,,-99.99,0.000000,,2013-07-26 11:52:00,
2013-07-26 05:33:00,43.0,41.0,-100.00,NNE,30,0.0,2.0,91,0.00,,,-99.99,0.000000,,2013-07-26 12:33:00,
2013-07-26 05:43:00,43.0,41.0,-100.00,NNE,30,0.0,2.0,91,0.00,,,-99.99,0.000000,,2013-07-26 12:43:00,
2013-07-26 05:52:00,42.0,40.0,-100.00,ENE,58,0.0,3.0,91,-99.99,,,0.00,5.000000,,2013-07-26 12:52:00,
2013-07-26 06:22:00,42.0,40.0,-100.00,ENE,58,0.0,3.0,91,-99.99,,,0.00,5.000000,,2013-07-26 13:22:00,
2013-07-26 06:32:00,42.0,40.0,-100.00,ENE,58,0.0,3.0,91,-99.99,,,0.00,5.000000,,2013-07-26 13:32:00,
2013-07-26 06:43:00,42.0,40.0,-100.00,ENE,58,0.0,3.0,91,-99.99,,,0.00,5.000000,,2013-07-26 13:43:00,
2013-07-26 07:22:00,42.0,40.0,-100.00,NNE,31,0.0,1.0,92,0.00,,,0.00,19.000000,,2013-07-26 14:22:00,
2013-07-26 07:32:00,42.0,40.0,-100.00,NNE,31,0.0,1.0,92,0.00,,,0.00,19.000000,,2013-07-26 14:32:00,
2013-07-26 07:43:00,42.0,40.0,-100.00,NNE,31,0.0,1.0,92,0.00,,,0.00,19.000000,,2013-07-26 14:43:00,
2013-07-26 08:22:00,48.0,46.0,-100.00,ENE,60,0.0,2.0,93,-99.99,,,0.00,58.000000,,2013-07-26 15:22:00,
2013-07-26 08:52:00,63.0,50.0,-100.00,ENE,74,0.0,2.0,63,-99.99,,,0.00,407.000000,,2013-07-26 15:52:00,
2013-07-26 09:22:00,63.0,50.0,-100.00,ENE,74,0.0,2.0,63,-99.99,,,0.00,407.000000,,2013-07-26 16:22:00,
2013-07-26 09:32:00,63.0,50.0,-100.00,ENE,74,0.0,2.0,63,-99.99,,,0.00,407.000000,,2013-07-26 16:32:00,
2013-07-26 09:43:00,63.0,50.0,-100.00,ENE,74,0.0,2.0,63,-99.99,,,0.00,407.000000,,2013-07-26 16:43:00,
2013-07-26 09:52:00,74.0,51.0,-100.00,ENE,73,1.0,2.0,44,0.00,,,0.00,566.000000,,2013-07-26 16:52:00,
2013-07-26 10:22:00,74.0,51.0,-100.00,ENE,73,1.0,2.0,44,0.00,,,0.00,566.000000,,2013-07-26 17:22:00,
2013-07-26 10:33:00,74.0,51.0,-100.00,ENE,73,1.0,2.0,44,0.00,,,0.00,566.000000,,2013-07-26 17:33:00,
2013-07-26 10:43:00,74.0,51.0,-100.00,ENE,73,1.0,2.0,44,0.00,,,0.00,566.000000,,2013-07-26 17:43:00,
2013-07-26 10:52:00,80.0,43.0,-100.00,South,174,2.0,4.0,27,0.00,,,0.00,233.000000,,2013-07-26 17:52:00,
2013-07-26 11:22:00,80.0,43.0,-100.00,South,174,2.0,4.0,27,0.00,,,0.00,233.000000,,2013-07-26 18:22:00,
2013-07-26 11:33:00,80.0,43.0,-100.00,South,174,2.0,4.0,27,0.00,,,0.00,233.000000,,2013-07-26 18:33:00,
2013-07-26 11:43:00,80.0,43.0,-100.00,South,174,2.0,4.0,27,0.00,,,0.00,233.000000,,2013-07-26 18:43:00,
2013-07-26 13:32:00,93.0,33.0,-100.00,SE,136,1.0,7.0,12,0.00,,,0.00,858.000000,,2013-07-26 20:32:00,
2013-07-26 14:52:00,94.0,29.0,-100.00,ENE,73,2.0,7.0,10,0.00,,,0.00,804.000000,,2013-07-26 21:52:00,
2013-07-26 15:32:00,94.0,29.0,-100.00,ENE,73,2.0,7.0,10,0.00,,,0.00,804.000000,,2013-07-26 22:32:00,
2013-07-26 15:43:00,94.0,29.0,-100.00,ENE,73,2.0,7.0,10,0.00,,,0.00,804.000000,,2013-07-26 22:43:00,
2013-07-26 15:52:00,94.0,29.0,-100.00,East,80,2.0,12.0,10,0.00,,,0.00,706.000000,,2013-07-26 22:52:00,
2013-07-26 16:22:00,94.0,29.0,-100.00,East,80,2.0,12.0,10,0.00,,,0.00,706.000000,,2013-07-26 23:22:00,
2013-07-26 16:32:00,94.0,29.0,-100.00,East,80,2.0,12.0,10,0.00,,,0.00,706.000000,,2013-07-26 23:32:00,
2013-07-26 16:43:00,94.0,29.0,-100.00,East,80,2.0,12.0,10,0.00,,,0.00,706.000000,,2013-07-26 23:43:00,
2013-07-26 16:52:00,92.0,28.0,-100.00,West,260,1.0,9.0,10,0.00,,,0.00,324.000000,,2013-07-26 23:52:00,
2013-07-26 17:22:00,92.0,28.0,-100.00,West,260,1.0,9.0,10,0.00,,,0.00,324.000000,,2013-07-27 00:22:00,
2013-07-26 17:32:00,92.0,28.0,-100.00,West,260,1.0,9.0,10,0.00,,,0.00,324.000000,,2013-07-27 00:32:00,
2013-07-26 17:52:00,87.0,37.0,-100.00,NW,309,1.0,5.0,17,0.00,,,0.00,100.000000,,2013-07-27 00:52:00,
2013-07-26 18:22:00,87.0,37.0,-100.00,NW,309,1.0,5.0,17,0.00,,,0.00,100.000000,,2013-07-27 01:22:00,
2013-07-26 18:32:00,87.0,37.0,-100.00,NW,309,1.0,5.0,17,0.00,,,0.00,100.000000,,2013-07-27 01:32:00,
2013-07-26 18:43:00,87.0,37.0,-100.00,NW,309,1.0,5.0,17,0.00,,,0.00,100.000000,,2013-07-27 01:43:00,
2013-07-26 21:32:00,64.0,53.0,-100.00,NE,41,0.0,3.0,68,0.00,,,0.00,4.000000,,2013-07-27 04:32:00,
2013-07-26 21:52:00,60.0,51.0,-100.00,NNE,21,2.0,3.0,73,0.00,,,0.00,0.000000,,2013-07-27 04:52:00,
2013-07-26 22:32:00,60.0,51.0,-100.00,NNE,21,2.0,3.0,73,0.00,,,0.00,0.000000,,2013-07-27 05:32:00,
2013-07-26 22:52:00,57.0,50.0,-100.00,NE,45,0.0,4.0,76,0.00,,,0.00,0.000000,,2013-07-27 05:52:00,
2013-07-26 23:22:00,57.0,50.0,-100.00,NE,45,0.0,4.0,76,0.00,,,0.00,0.000000,,2013-07-27 06:22:00,
2013-07-26 23:33:00,57.0,50.0,-100.00,NE,45,0.0,4.0,76,0.00,,,0.00,0.000000,,2013-07-27 06:33:00,
2013-07-26 23:43:00,57.0,50.0,-100.00,NE,45,0.0,4.0,76,0.00,,,0.00,0.000000,,2013-07-27 06:43:00,
2013-07-26 23:52:00,55.0,48.0,-100.00,NNE,33,0.0,3.0,76,0.00,,,0.00,0.000000,,2013-07-27 06:52:00,